Location: Unspecified
(35.7250°N, 0.0000°E)
Time: 19:02:49
(UTC+00:00)

Tiros 1 - Pass Details

Date: 27 June 2019
Orbit: 630 x 664 km, 48.4° (Epoch: 16 July)

Event Time Altitude Azimuth Distance (km) Brightness Sun altitude
Rises 01:34:16 0° 309° (NW) 2,941 10.7 -27.1°
Reaches altitude 10° 01:37:05 10° 325° (NW) 2,025 10.0 -26.9°
Maximum altitude 01:40:40 22° 15° (NNE) 1,405 9.6 -26.6°
Drops below altitude 10° 01:44:15 10° 66° (ENE) 2,010 10.3 -26.3°
Sets 01:47:02 0° 82° (E) 2,913 11.0 -26.0°
